Location: Eggenstein-Leopoldshafen
(49.0901°N, 8.3998°E)
Time: 19:14:07
(UTC+00:00)

Daily predictions for brighter satellites

Satellite Brightness Start Highest point End
(mag) Time Altitude Azimuth Time Altitude Azimuth Time Altitude Azimuth
Radarsat Rocket 4.4 16:46:37 10° SSE 16:53:04 90° WSW 17:00:29 10° NNW
SMAP 3.3 16:49:06 10° S 16:53:44 80° WSW 16:58:26 10° NNW
CORIOLIS 4.2 16:49:52 10° SSE 16:55:13 89° WSW 17:00:37 10° NNW
Cosmos 2344 4.4 16:47:46 10° NW 16:55:56 50° NNE 17:06:54 10° ESE
Cosmos 1300 4.1 16:54:24 10° SE 16:57:04 18° E 16:59:46 10° NE
Okean O Rocket 2.1 16:54:27 10° SE 16:58:29 39° ENE 17:02:33 10° N
Cosmos 1470 4.3 16:55:09 10° SW 16:58:53 40° WNW 17:02:40 10° N
Cosmos 2322 Rocket 3.6 16:55:31 10° SE 16:59:02 17° E 17:02:34 10° ENE
Cosmos 1939 Rocket 3.3 16:55:31 10° S 16:59:27 69° W 17:03:27 10° NNW
Cosmos 1703 3.2 17:01:07 10° N 17:05:02 65° ENE 17:08:54 10° SSE
H-2A R/B 2.2 16:59:53 10° SSE 17:05:12 63° ENE 17:10:37 10° N
Landsat 5 4.3 17:01:52 10° NNE 17:05:50 32° E 17:09:51 10° SSE
Cosmos 2098 4.3 17:03:34 10° S 17:06:35 86° W 17:10:09 10° N
Cosmos 2123 Rocket 4.2 17:03:32 10° N 17:09:41 49° ENE 17:15:45 10° SSE
Cosmos 389 Rocket 2.7 17:06:33 10° SSW 17:09:55 71° WNW 17:13:22 10° N
Cosmos 2360 Rocket 3.8 17:08:01 10° ESE 17:10:22 13° E 17:12:33 10° ENE
USA 215 3.4 17:03:48 10° NE 17:10:22 81° NNW 17:16:55 10° WSW
Tiangong 3.3 17:08:35 10° SSW 17:10:47 17° SSE 17:12:58 10° SE
Okean 1 Rocket 3.7 17:06:39 10° SSW 17:10:55 59° WNW 17:15:15 10° N
Okean 1-7 Rocket 3.9 17:10:13 10° N 17:14:27 43° ENE 17:18:41 10° SSE
Cosmos 405 Rocket 2.7 17:11:29 10° N 17:15:28 75° ENE 17:19:28 10° SSE
SL-08 RB Rocket 4.4 17:12:45 10° SE 17:16:50 33° ENE 17:20:59 10° N
Okean-O 4.0 17:15:15 10° ESE 17:18:19 19° ENE 17:21:25 10° NNE
COSMO-SKYMED 1 2.8 17:15:21 10° NNE 17:19:33 46° E 17:23:44 10° S
deb Chang Zheng 4 3.5 17:15:30 10° SSE 17:19:42 89° WSW 17:23:58 10° NNW
CZ-4B R/B 3.3 17:14:48 10° SSE 17:20:28 81° ENE 17:26:10 10° NNW
SL-19 R/B 4.3 17:17:59 10° NNE 17:23:44 71° ESE 17:29:16 10° S
Lacrosse 4 Rocket 2.1 17:20:09 10° NNW 17:24:10 37° NE 17:27:48 12° ESE
ARGOS 3.2 17:19:51 10° SSE 17:25:08 59° ENE 17:30:28 10° N
Cosmos 1269 Rocket 4.0 17:19:55 10° NNW 17:25:16 90° SW 17:30:33 10° SSE
Cosmos 1125 Rocket 4.2 17:20:08 10° SW 17:25:18 57° WNW 17:30:29 10° NNE
Cosmos 1892 Rocket 3.8 17:23:07 10° NNW 17:27:36 75° W 17:32:00 10° S
Cosmos 2263 Rocket 2.4 17:23:22 10° NNW 17:28:57 73° WSW 17:34:28 10° SSE
Cosmos 2227 4.3 17:27:28 10° NNW 17:33:16 84° WSW 17:39:01 10° SSE
Cosmos 1980 Rocket 2.6 17:27:49 10° SW 17:33:27 67° WNW 17:39:10 10° NNE
ATLAS 3B R/B 3.5 17:27:26 10° WSW 17:33:49 48° NW 17:40:31 10° NE
Cosmos 2369 4.5 17:28:22 10° SW 17:33:55 54° NW 17:39:30 10° NNE
NOSS 3-1 (A) 4.3 17:30:57 10° SSE 17:35:06 23° ESE 17:37:47 17° ENE
MOS 1-B Rocket 4.1 17:28:33 10° NNE 17:35:12 57° E 17:41:00 10° S
Cosmos 1328 3.7 17:34:24 10° N 17:38:27 84° E 17:42:29 10° S
Cosmos 2251 Rocket 3.9 17:38:28 10° NNW 17:43:28 42° ENE 17:47:22 16° SE
CZ-2C R/B 2.7 17:37:54 10° NNE 17:43:31 67° ESE 17:49:00 10° S
SKYMED 3 4.5 17:39:14 10° NNE 17:43:37 81° ESE 17:47:57 10° SSW
Cosmos 1758 Rocket 4.3 17:41:33 10° N 17:45:21 29° ENE 17:47:08 22° ESE
USA 267 4.3 17:39:39 10° SSE 17:45:50 44° SW 17:52:04 10° WNW
Cosmos 1892 3.4 17:43:58 10° N 17:47:20 29° ENE 17:48:05 27° E
Cosmos 1953 3.4 17:43:28 10° SSW 17:47:24 49° WNW 17:51:23 10° N
Cosmos 1697 Rocket 4.4 17:44:42 10° WSW 17:49:44 32° NW 17:54:47 10° NNE
Cosmos 304 Rocket 4.2 17:45:52 10° S 17:50:18 39° ESE 17:54:46 10° NE
HJ-1C 3.7 17:49:57 27° ESE 17:51:13 41° ENE 17:54:19 10° N
CSL-04 Rocket 4.3 17:48:19 17° ESE 17:51:53 35° ENE 17:56:53 10° N
Cosmos 1626 Rocket 3.4 17:47:45 10° N 17:52:05 70° ENE 17:56:23 10° SSE
CENTAUR R/B 4.2 17:47:28 10° NW 17:53:30 28° N 17:59:02 14° NE
NOSS 2-3 (D) 3.9 17:51:20 10° SSW 17:55:10 43° ESE 17:57:07 27° ENE
Meteor 1-4 Rocket 2.7 17:54:55 10° SSE 17:58:14 42° E 17:59:19 32° NE
Cosmos 1140 Rocket 4.4 17:54:05 10° N 17:58:33 28° NE 17:59:35 26° ENE
Cosmos 1605 Rocket 4.0 17:53:27 10° S 17:59:35 60° E 18:05:50 10° NNE
NOSS 3-1 (C) 3.2 17:54:57 10° SSW 18:00:06 59° ESE 18:04:56 16° NE
IRS-1C Rocket 4.1 17:57:12 10° SE 18:02:19 57° ENE 18:07:30 10° N
Cosmos 1844 Rocket 2.8 17:56:52 10° NNW 18:02:20 52° NE 18:05:24 25° ESE
Cosmos 332 Rocket 3.9 18:00:59 10° S 18:05:44 54° ESE 18:10:29 10° NNE
Cosmos 1535 Rocket 4.5 17:59:46 10° S 18:06:03 88° E 18:12:27 10° N
Cosmos 1447 Rocket 4.4 18:00:51 10° N 18:06:55 59° ENE 18:12:59 10° SSE
CZ-4 R/B 1.3 18:03:22 10° SSE 18:07:23 83° ENE 18:11:31 10° NNW
SKYMED 2 4.1 18:03:21 10° N 18:07:38 60° WNW 18:11:54 10° SSW
NOSS 2-3 (C) 3.5 18:03:45 10° SSW 18:07:45 58° SE 18:09:38 32° ENE
H-2A R/B 2.6 18:04:58 10° S 18:09:17 77° WSW 18:13:28 10° NNW
X-37B 1.9 18:06:52 10° WSW 18:09:43 30° SSW 18:10:16 28° S
BREEZE-M DEB (TANK) 2.9 18:08:23 10° WNW 18:14:15 70° SSW 18:14:54 51° SE
YAOGAN 1 2.6 18:11:12 10° SSE 18:15:32 82° WSW 18:19:53 10° NNW
CZ-4C R/B 3.6 18:13:08 10° N 18:16:28 53° WNW 18:19:41 10° SSW
H-2A R/B 2.0 18:14:22 10° NNE 18:18:26 54° ESE 18:22:30 10° S
Cosmos 220 Rocket 4.1 18:14:37 10° S 18:18:53 50° ESE 18:19:15 49° E
SWARM C 4.4 18:16:55 10° S 18:20:13 85° W 18:23:34 10° N
SWARM A 4.1 18:17:07 10° S 18:20:25 85° W 18:23:44 10° N
Cosmos 2278 Rocket 3.7 18:16:45 10° N 18:20:46 19° NE 18:21:01 19° NE
GENESIS II 4.1 18:19:51 10° NW 18:23:46 65° NE 18:23:55 64° ENE
Meteor 2-10 Rocket 3.5 18:19:20 10° S 18:24:53 77° E 18:30:16 10° NNE
Cosmos 1408 2.7 18:23:01 10° N 18:26:02 57° NNE 18:26:02 57° NNE
IRAS Rocket 4.2 18:21:05 10° NNE 18:26:41 88° WNW 18:32:12 10° SSW
SL-16 R/B 2.2 18:23:00 10° SSW 18:28:42 83° WNW 18:34:25 10° NNE
Cosmos 614 Rocket 3.9 18:25:22 10° NNW 18:30:28 84° WSW 18:33:26 25° SSE
Cosmos 1300 4.2 18:28:52 10° SW 18:32:25 38° WNW 18:36:01 10° N
Cosmos 371 Rocket 4.0 18:28:13 10° SW 18:33:00 55° WNW 18:37:50 10° NNE
ATLAS 5 CENTAUR R/B 3.1 18:30:24 10° W 18:34:02 31° NNW 18:36:44 17° NNE
SL-8 R/B 3.6 18:29:42 10° WSW 18:34:30 80° S 18:35:12 64° ESE
Okean O Rocket 3.9 18:31:21 10° SSW 18:34:57 25° W 18:38:35 10° NW
Cosmos 1825 3.9 18:35:13 10° N 18:36:45 22° N 18:36:45 22° N
Cosmos 2322 Rocket 2.1 18:36:43 10° SSW 18:42:20 84° WNW 18:47:06 15° NNE
DMSP B5D2-2 4.0 18:39:05 10° NNE 18:44:22 86° WNW 18:49:36 10° SSW
Tiangong 3.7 18:44:34 10° SW 18:45:38 16° SW 18:45:38 16° SW
Cosmos 1844 3.6 18:42:22 10° NNW 18:48:12 90° ENE 18:49:49 50° SSE
Cosmos 1932 4.4 18:42:46 10° NW 18:49:02 85° SW 18:51:03 46° SSE
USA 215 3.9 18:50:00 29° NE 18:53:01 48° N 18:59:14 10° W
Cosmos 2360 Rocket 2.0 18:47:44 10° SSW 18:53:22 76° ESE 18:54:25 59° NE
Okean-O 3.1 18:52:50 37° SSW 18:54:22 60° WSW 18:58:47 10° NNW
Cosmos 2346 Rocket 4.4 18:50:24 10° N 18:56:37 63° ENE 18:56:56 62° E
NOSS 2-3 (E) 4.0 18:54:04 10° WSW 18:58:08 58° NW 18:58:37 55° NNW
USA 229 DEB 3.4 18:56:20 10° SW 19:02:43 84° SE 19:04:46 48° NE
Lacrosse 4 Rocket 3.1 18:58:57 10° NW 19:02:46 31° WSW 19:04:08 26° SSW
USA 229 3.4 18:56:27 10° SW 19:02:50 83° SE 19:04:49 49° NE
Resurs 01 Rocket 4.1 19:09:58 12° N 19:09:58 12° N 19:10:18 10° N
Cosmos 44 3.6 19:02:19 10° SW 19:06:59 66° SSW 19:06:59 66° SSW
Meteor 2-11 Rocket 4.4 19:04:05 10° S 19:10:15 85° W 19:16:27 10° N
Ariane Rocket 4.5 19:18:33 27° N 19:18:33 27° N 19:20:55 10° N
Cosmos 2100 Rocket 3.9 19:14:01 10° S 19:20:20 88° WNW 19:26:46 10° N
BREEZE-M R/B 3.9 19:19:32 10° W 19:22:09 38° SW 19:22:09 38° SW
Cosmos 1459 Rocket 4.1 19:24:21 64° N 19:24:21 64° N 19:29:28 10° N
NOSS 3-1 (A) 3.4 19:19:45 10° SW 19:25:10 72° NW 19:25:17 72° NNW
ATLAS 3B R/B 4.4 19:20:44 10° WNW 19:26:14 25° N 19:29:23 19° NNE
Cosmos 1943 Rocket 4.3 19:23:43 10° N 19:25:42 15° NNE 19:25:42 15° NNE
Cosmos 407 Rocket 4.2 19:29:05 10° NNW 19:33:40 53° W 19:33:40 53° W
Cosmos 2173 Rocket 4.1 19:36:02 74° WNW 19:36:02 74° WNW 19:42:12 10° N
Cosmos 1140 Rocket 4.5 19:35:35 10° NNW 19:39:37 44° WNW 19:39:37 44° WNW
NOSS 3-2 (A) 4.5 19:38:12 10° NW 19:44:30 46° NNE 19:44:30 46° NNE
Cosmos 1844 Rocket 4.2 19:41:13 10° NW 19:45:58 29° WSW 19:47:06 27° SW
CENTAUR R/B 3.7 19:38:56 10° NW 19:46:12 44° NNE 19:46:12 44° NNE
NOSS 3-1 (C) 4.5 19:46:02 10° W 19:51:16 39° NNW 19:52:21 36° N
Cosmos 2278 Rocket 3.8 20:00:09 10° NNW 20:02:52 29° NNW 20:02:52 29° NNW
BREEZE M DEB (TANK) 4.3 19:48:55 10° W 20:09:16 85° WNW 20:09:16 85° WNW
SL-16 R/B 4.4 20:09:31 10° W 20:13:42 21° NW 20:17:03 13° N
Cosmos 2322 Rocket 4.4 20:23:07 10° W 20:27:15 21° NW 20:28:57 18° NNW
USA 215 4.4 20:37:20 38° NNW 20:37:20 38° NNW 20:41:37 10° WNW
Cosmos 2360 Rocket 4.3 20:33:21 10° W 20:36:17 22° WNW 20:36:17 22° WNW
CENTAUR R/B 4.5 21:29:39 10° NW 21:33:22 32° NW 21:33:22 32° NW
